Theta_e
304 305 306 306 307 307 308 308 308 308 309 310 315 316 315 313 313 315 316 314 314 317 317 318 318 317 318 316 317 313 314 317 326 338 334 334 331 328 327 333 331 331 333 339 341
305 306 307 308 308 309 309 309 309 308 309 310 314 316 316 313 315 319 318 314 316 315 315 317 316 315 314 316 315 312 311 314 316 333 333 333 335 325 332 333 332 334 338 340 344
307 308 308 309 310 310 310 310 310 308 309 311 314 316 314 314 324 329 318 314 315 317 315 315 316 315 316 314 313 312 313 314 318 327 331 332 334 325 332 331 331 335 342 342 341
308 308 310 311 312 312 312 312 311 309 309 312 314 315 314 323 324 323 322 316 317 318 316 316 314 316 314 313 312 315 313 314 316 319 331 333 325 328 330 328 330 334 340 339 339
309 310 312 313 313 314 314 313 312 310 310 313 314 314 317 318 318 326 323 317 318 316 315 315 316 315 314 313 315 314 315 314 315 315 329 331 327 328 328 328 331 333 336 337 337
310 312 313 314 315 315 315 314 312 313 314 314 315 314 322 316 322 325 321 317 321 315 316 316 317 314 316 315 318 318 317 318 316 321 333 334 331 327 325 330 332 332 332 333 333
312 313 315 316 316 317 316 314 314 317 316 315 315 318 321 314 319 322 319 319 315 314 314 315 317 317 316 317 317 318 320 318 322 331 334 331 328 325 327 331 332 333 332 330 330
313 314 315 316 317 318 316 315 317 319 316 316 315 321 318 317 320 318 315 314 313 315 316 318 318 315 315 316 315 318 319 322 320 329 333 332 335 326 330 331 332 332 332 331 328
313 314 316 317 318 318 315 315 315 318 317 316 320 320 322 324 325 324 319 319 316 315 316 317 316 315 313 314 314 313 321 323 322 322 327 330 331 326 329 331 332 332 332 332 330
314 315 317 318 318 317 316 317 314 323 321 321 322 318 321 323 325 323 321 320 319 317 317 317 310 312 309 311 315 317 317 317 319 320 323 328 330 325 329 331 331 331 331 331 330
314 315 317 318 319 316 318 317 309 309 316 312 312 317 316 319 319 321 322 318 319 316 317 314 314 314 313 312 315 316 316 316 315 316 323 325 331 325 328 329 329 329 330 330 330
313 314 316 318 318 317 317 313 315 315 309 312 310 312 316 317 314 317 321 319 316 315 315 313 314 314 314 315 316 316 317 315 315 317 328 329 332 330 325 327 327 328 328 329 329
313 314 316 318 318 318 316 317 317 316 312 315 314 312 312 314 314 316 318 317 317 315 315 314 315 316 317 317 318 316 317 316 317 317 324 333 328 335 328 326 324 324 327 328 328
314 314 314 317 318 317 316 318 318 316 315 322 321 317 314 313 316 316 319 319 317 316 313 315 315 316 317 317 316 317 315 317 318 316 316 330 335 328 332 331 330 326 325 325 326
314 313 314 313 314 314 319 319 318 316 317 326 320 318 314 315 318 319 319 320 319 319 317 317 318 317 318 318 316 317 317 316 317 315 315 317 320 320 326 332 330 330 328 327 325
314 314 313 313 312 318 318 318 315 318 331 327 321 320 318 317 317 318 319 319 319 319 318 317 317 318 318 318 317 319 318 315 312 311 314 314 315 314 317 322 328 328 327 329 327
314 314 312 312 315 317 318 313 313 314 318 320 319 318 317 317 317 318 318 318 316 321 320 319 318 317 318 319 318 316 315 317 318 316 317 314 316 314 317 318 320 320 320 320 325
314 313 313 315 315 315 317 311 315 316 320 319 318 318 318 317 318 317 318 317 317 317 316 319 320 319 319 319 321 320 316 317 319 317 316 315 316 317 317 316 318 319 318 319 317
312 311 315 319 319 318 310 311 309 316 318 317 317 317 317 316 317 315 316 318 320 318 320 319 319 320 321 321 321 322 319 316 317 315 316 315 316 317 319 321 323 323 321 318 319
308 312 316 320 319 317 309 311 316 317 319 322 316 316 316 316 316 316 316 319 323 320 318 320 321 321 323 322 321 320 317 319 314 320 319 317 319 320 320 320 323 322 323 319 323
310 309 316 320 318 312 314 314 317 319 322 326 323 317 317 320 317 318 318 323 327 324 318 322 320 323 323 323 322 321 320 315 314 316 318 319 318 318 319 321 323 322 323 323 325
305 305 315 316 316 312 317 317 319 321 322 322 321 319 321 321 321 320 319 327 325 327 329 324 321 323 323 323 323 321 321 318 321 322 319 319 321 320 320 318 319 320 321 321 320
303 305 315 315 317 312 314 319 319 322 319 318 322 323 322 323 323 322 324 322 322 324 329 329 320 320 319 319 320 324 324 320 318 318 322 323 324 321 320 322 325 324 325 325 322
304 310 311 310 310 315 315 317 320 320 318 320 319 320 322 323 321 322 322 322 322 321 330 326 322 320 321 321 328 330 328 325 322 323 324 322 323 322 324 330 328 327 327 327 328
304 312 310 314 314 312 312 315 317 316 315 315 318 319 321 321 319 319 319 320 320 322 321 320 325 331 329 329 329 329 329 328 324 321 323 321 321 326 329 328 326 326 325 327 327
308 310 308 310 310 312 309 313 315 316 317 318 316 317 316 318 317 317 317 318 318 319 320 318 321 327 327 325 326 327 324 325 327 328 320 320 320 327 324 323 325 325 324 325 326
308 308 307 309 311 312 312 315 316 315 315 315 315 314 318 318 318 315 312 314 314 316 317 318 321 324 324 326 325 323 324 325 326 330 329 329 331 325 325 324 323 322 322 323 324
Wind_Speed
26 26 26 26 26 27 27 26 28 21 18 17 15 14 10 10 10 7 7 7 10 10 9 10 6 4 2 1 1 3 4 2 4 3 4 6 5 3 2 11 2 4 5 15 29
26 26 27 28 28 28 27 27 28 22 19 17 15 14 10 10 10 10 6 15 13 15 9 9 4 3 2 1 1 4 4 8 6 4 4 3 5 10 5 10 1 6 13 28 30
28 28 28 29 29 29 29 27 29 23 19 17 13 12 9 10 3 5 6 17 15 11 8 6 9 3 0 1 5 5 6 6 6 11 10 3 6 7 10 8 8 20 20 24 28
29 30 29 29 30 30 31 28 29 21 18 16 11 9 7 4 3 1 2 18 14 14 8 6 4 3 2 4 4 3 9 8 10 10 8 6 6 7 15 7 15 22 26 22 22
30 31 31 32 32 32 32 31 27 19 17 14 9 6 3 3 7 5 3 21 15 14 9 5 4 4 2 4 3 4 6 6 13 10 12 10 10 5 15 1 15 16 19 21 20
31 32 32 34 34 34 33 32 25 25 20 11 5 2 1 2 3 5 9 21 15 16 7 8 6 7 4 4 2 4 5 8 10 5 8 11 3 8 7 9 17 17 17 18 20
32 33 33 34 34 35 35 30 30 20 9 2 0 2 2 11 2 3 10 15 17 16 4 9 5 1 1 6 2 5 7 7 3 3 3 9 4 15 7 14 18 19 16 15 18
32 34 34 35 36 35 33 29 21 12 4 3 4 3 6 2 2 11 12 8 13 16 13 7 7 3 4 3 8 5 3 3 5 5 3 10 13 8 18 20 18 20 17 17 17
32 34 34 35 36 37 27 27 16 6 5 5 3 2 7 6 5 11 16 6 10 13 11 7 3 1 6 4 5 6 2 2 7 5 3 4 7 5 14 19 20 19 19 19 17
33 35 35 36 37 32 26 14 9 4 4 3 1 2 5 1 2 5 17 19 2 2 2 4 5 3 4 5 4 3 4 4 5 3 2 8 11 8 18 21 23 20 18 19 19
33 36 35 36 38 19 23 4 7 4 1 8 6 4 6 9 5 1 8 7 2 5 2 4 4 5 8 6 3 2 3 5 6 8 3 4 8 13 21 15 15 16 17 19 22
33 36 36 35 32 12 14 5 5 9 9 9 11 10 11 3 5 3 9 6 6 5 3 5 6 10 4 3 4 3 4 10 9 5 4 6 6 5 11 21 19 20 18 21 22
33 35 36 34 19 11 12 5 20 12 3 8 4 4 5 12 7 7 6 4 4 5 4 6 7 3 3 3 3 4 4 7 9 6 3 2 5 3 6 8 10 9 18 19 23
32 34 35 36 7 21 10 18 22 1 4 6 4 5 5 6 3 11 10 6 1 9 7 5 4 5 2 6 6 5 8 11 6 2 3 3 4 5 5 12 15 20 17 20 23
32 34 33 29 17 7 9 22 20 3 3 3 1 5 3 7 3 2 8 4 8 6 6 9 4 5 2 7 7 10 3 7 4 3 4 3 3 7 3 5 10 19 24 22 26
32 31 33 13 11 11 16 19 3 5 3 6 2 0 2 3 3 2 3 5 3 4 3 9 2 5 7 5 7 5 3 5 5 4 1 6 7 6 5 8 5 6 12 18 19
33 31 28 15 4 9 14 4 5 3 5 7 4 6 3 4 6 2 4 4 6 3 5 5 9 4 5 3 1 4 6 3 5 4 6 2 3 8 7 8 9 11 14 12 15
34 30 21 16 13 8 5 5 2 2 4 4 5 7 5 5 4 7 3 4 4 5 3 2 8 6 5 7 6 2 7 5 7 5 7 2 4 6 10 10 9 11 12 14 14
33 19 9 3 4 5 5 3 6 5 4 7 9 5 4 6 2 4 4 2 3 2 1 1 9 5 3 3 6 3 3 4 2 2 3 4 7 9 7 8 8 9 10 10 8
25 13 6 5 6 4 4 4 3 3 6 3 2 3 2 3 2 4 3 3 7 4 3 4 7 6 14 4 1 5 5 0 2 3 5 5 3 5 8 9 8 10 8 8 7
7 4 8 6 1 5 2 5 4 4 5 3 3 4 3 2 1 2 1 3 6 7 6 1 2 7 2 2 7 1 3 4 5 5 5 2 6 7 8 8 8 8 7 6 6
7 3 4 3 3 1 1 3 6 6 4 3 3 2 2 2 1 1 3 5 12 4 2 3 2 4 7 6 4 3 5 5 5 5 3 4 6 3 5 8 8 10 15 16 11
2 3 4 2 1 2 5 5 3 5 5 6 7 4 4 2 1 4 6 2 9 6 4 5 2 3 10 7 5 4 3 4 4 3 4 4 5 5 8 10 10 11 16 19 20
2 4 4 4 2 2 3 4 5 5 0 4 5 4 5 6 7 4 6 4 4 6 7 4 1 6 6 5 2 6 8 2 3 2 4 6 5 7 8 11 15 14 15 15 16
2 2 1 3 2 3 1 2 3 5 3 8 5 6 3 4 5 6 2 3 5 5 6 4 3 2 5 7 7 9 4 8 5 8 7 7 8 2 7 9 8 7 13 15 18
1 2 4 2 4 4 4 2 3 6 3 1 4 2 6 4 2 3 4 3 5 3 1 1 4 2 6 7 8 6 8 11 13 12 7 6 6 3 7 7 10 9 17 17 16
3 2 3 3 4 1 0 3 4 6 4 4 1 4 4 2 3 7 7 7 8 6 4 4 4 1 6 6 7 9 10 11 2 7 4 2 4 8 13 16 13 11 14 16 16
Wind_Direction
358 358 357 355 355 353 352 351 351 347 343 344 344 336 307 301 299 280 235 218 188 156 142 168 188 182 170 15 161 124 53 273 268 184 224 181 105 330 97 135 240 212 132 155 151
357 356 355 354 353 351 349 348 350 345 340 341 343 335 314 306 304 241 240 172 150 180 160 150 160 156 78 224 226 114 127 220 249 248 253 118 101 155 123 161 298 91 95 136 144
357 355 353 352 349 347 345 345 347 342 338 339 343 337 323 324 303 252 169 172 187 180 172 179 139 114 280 252 191 175 186 232 263 229 257 281 139 163 129 213 219 153 149 152 155
356 354 352 350 347 344 342 343 341 337 336 337 342 341 332 347 143 150 197 171 168 172 180 147 91 116 216 210 213 168 236 185 257 231 204 203 140 166 176 224 165 160 159 156 164
354 352 350 349 346 343 340 337 338 334 332 329 336 345 356 353 253 325 166 167 168 177 188 152 139 173 243 226 268 171 228 224 247 256 206 158 186 175 200 305 141 151 159 167 171
353 351 349 347 345 342 338 336 335 325 314 312 323 2 119 295 317 304 165 169 184 190 191 174 186 201 256 242 187 237 211 255 278 270 166 163 122 130 191 161 149 167 170 179 180
351 350 347 345 344 340 336 336 332 328 321 289 200 112 133 239 231 220 182 187 192 194 169 213 182 109 10 287 234 282 319 340 291 121 102 103 111 224 156 161 165 179 185 180 193
349 348 346 344 342 339 335 339 335 342 37 106 128 135 242 258 31 190 191 222 209 211 221 242 218 211 178 303 1 7 41 27 272 118 227 133 235 228 164 158 181 186 191 196 198
347 346 345 344 343 338 337 341 347 31 70 104 117 163 268 294 252 241 217 217 202 215 236 258 210 177 24 77 4 1 255 292 327 197 103 135 253 207 177 171 183 191 195 200 206
346 345 344 343 343 338 343 342 1 41 61 45 221 342 288 66 310 295 220 214 191 138 18 82 53 62 42 62 211 246 347 318 277 296 120 198 237 185 183 185 188 193 196 205 209
345 345 343 342 343 350 7 13 11 349 288 216 223 254 291 313 311 67 184 158 347 47 194 3 57 242 239 196 200 257 220 265 256 258 249 254 222 199 198 195 189 191 202 210 217
343 344 342 341 343 360 16 66 81 288 302 265 244 239 248 13 322 288 170 141 147 195 109 19 248 239 239 194 217 238 308 295 292 330 162 303 287 227 186 206 201 194 200 214 225
342 343 342 340 342 349 353 34 344 356 291 300 220 195 210 152 211 258 144 132 154 157 178 171 234 102 164 296 268 250 211 257 233 336 317 26 321 206 192 200 219 233 221 218 219
340 341 341 340 344 334 319 339 338 7 28 279 289 276 131 141 251 220 173 141 101 200 161 230 278 224 246 257 163 276 212 232 244 141 219 79 271 300 201 229 221 223 218 224 224
338 339 336 334 303 300 317 328 334 100 8 327 300 164 158 155 225 279 166 98 183 198 118 244 242 270 213 234 157 239 157 208 210 160 81 334 92 266 330 265 231 227 224 224 224
334 335 329 323 294 299 329 329 351 43 267 341 83 134 170 245 297 52 101 64 164 205 197 242 243 173 217 261 176 254 134 43 37 101 69 238 166 270 240 225 284 265 201 225 230
331 330 317 294 249 310 326 9 40 136 332 345 327 335 129 330 350 189 171 177 189 138 253 333 262 231 179 263 5 87 63 332 337 349 230 286 68 243 258 244 228 268 283 246 224
331 328 317 295 273 286 351 50 169 262 288 346 313 327 99 11 23 348 94 227 334 30 55 188 321 182 169 184 199 191 152 154 231 229 249 3 247 245 227 267 253 250 256 275 267
333 330 321 349 88 118 73 83 213 214 334 330 324 56 21 349 86 27 27 36 68 135 165 141 265 310 241 225 128 276 208 193 162 55 68 226 294 300 279 290 309 316 351 332 285
330 326 335 336 128 59 74 234 252 238 343 320 287 78 104 302 43 29 1 12 349 359 155 271 294 246 277 116 192 165 173 352 16 262 267 283 264 233 292 291 301 319 332 318 321
341 10 30 92 93 47 146 238 283 278 318 275 272 289 74 106 65 355 318 88 339 316 318 11 162 290 352 197 220 284 256 63 122 149 191 223 264 223 246 260 253 277 287 258 268
351 4 5 11 38 25 195 219 301 325 335 311 252 303 139 131 117 303 114 24 335 338 44 319 181 278 243 269 260 233 233 160 138 251 216 165 259 262 297 308 324 325 326 328 303
360 274 355 341 135 321 307 304 271 328 340 358 8 12 8 32 27 42 28 53 16 35 32 327 322 354 333 341 8 45 5 102 113 70 223 169 254 317 30 7 358 347 350 340 339
9 355 325 37 47 112 18 293 323 307 99 34 11 26 45 27 19 45 10 16 12 3 356 155 140 174 202 249 353 302 317 293 143 151 229 223 262 297 351 346 335 350 354 346 350
33 317 158 322 341 356 300 277 318 338 29 25 30 34 322 51 8 5 4 322 311 25 14 73 290 244 249 264 282 276 298 319 254 228 200 253 242 0 330 315 312 346 346 353 360
55 23 350 286 321 330 360 40 341 314 335 51 101 27 69 98 126 307 343 10 249 301 147 309 267 266 266 267 262 259 294 276 273 270 252 259 257 13 303 311 339 3 354 352 353
346 2 108 292 334 11 324 303 343 337 26 41 193 124 122 158 241 234 223 231 235 252 204 210 201 225 259 223 307 285 228 237 293 41 331 350 343 344 345 341 338 6 355 344 341